[[{"header":{"parameterUnit":"m.s-1","parameterCategory":1,"la1":30.2991,"la2":30.254,"lo1":-89.0895,"lo2":-89.0444,"dy":0.0017,"dx":0.0017,"nx":28,"ny":28,"refTime":"2025-01-12T03:00:00:Z","depth":0,"parameterNumber":2,"parameterNumberName":"U-component_of_WINDS"},"data":[0,0,0,0,0,0,0,0,0,0,0,0,0,0,0,0,0,0,0,0,0,0,0,0,0,0,0,0,0,0,0,0,0,0,0,0,0,0,0,0,0,0,0,0,0,0,0,0,0,0,0,0,0,0,0,0,0,0,-1.952,-1.952,0,-1.9592,-1.9593,-1.9594,-1.9564,-1.9562,-1.956,-1.9559,-1.9635,-1.9638,-1.9642,0,0,0,0,0,0,0,0,0,0,0,0,0,-1.9356,-1.936,-1.9519,-1.952,-1.9521,-1.9592,-1.9593,-1.9594,-1.9564,-1.9562,-1.956,-1.9558,-1.9634,-1.9638,-1.9642,0,0,0,0,0,0,0,0,0,0,0,0,0,-1.9428,-1.9361,-1.9519,-1.9515,-1.9515,-1.9592,-1.9593,-1.9594,-1.9564,-1.9562,-1.9559,-1.9557,-1.9632,-1.9638,-1.9643,-1.9729,0,0,-1.966,-1.9662,0,0,0,0,0,0,0,0,-1.9424,-1.9434,-1.9515,-1.9515,-1.9516,-1.9566,-1.9563,-1.9639,-1.9565,-1.9546,-1.9559,-1.9556,-1.9614,-1.9621,-1.964,-1.9732,-1.9736,-1.966,-1.9664,-1.9666,-1.9667,0,0,0,0,0,0,0,-1.9419,-1.9431,-1.9548,-1.9516,-1.9517,-1.951,-1.9517,-1.9578,-1.9594,-1.9547,-1.9545,-1.9554,-1.9614,-1.9635,-1.9642,-1.9737,-1.966,-1.9665,-1.9668,-1.967,-1.9903,-1.9906,0,0,0,0,0,0,-1.9414,-1.9427,-1.9546,-1.955,-1.9462,-1.9515,-1.9523,-1.9553,-1.9593,-1.9597,-1.9556,-1.9553,-1.9627,-1.9636,-1.9645,-1.9749,-1.9666,-1.9671,-1.9674,-1.99,-1.9904,-1.9907,0,0,0,0,0,0,-1.941,-1.9425,-1.9543,-1.9488,-1.9503,-1.952,-1.9554,-1.9555,-1.9577,-1.96,-1.9603,-1.9575,-1.9625,-1.9637,-1.9708,-1.9751,-1.9673,-1.9678,-1.9897,-1.9902,-1.9906,-1.9957,0,0,0,0,0,0,-1.9406,-1.9424,-1.9456,-1.9489,-1.9506,-1.9605,-1.9557,-1.9559,-1.9586,-1.9582,-1.9618,-1.9622,-1.9624,-1.97,-1.9714,-1.9757,-1.9683,-1.9893,-1.9899,-1.9904,-1.9951,-1.9962,-1.9972,0,0,0,0,0,-1.94,-1.9468,-1.9458,-1.9473,-1.9547,-1.9608,-1.9617,-1.9618,-1.9589,-1.9623,-1.9637,-1.9621,-1.9743,-1.9708,-1.9723,-1.9768,-1.9891,-1.9897,-1.9904,-1.9947,-1.996,-1.9971,0,0,0,0,0,0,-1.9441,-1.9472,-1.9462,-1.9542,-1.9572,-1.9602,-1.9644,-1.9632,-1.9672,-1.9666,-1.9666,-1.9675,-1.9749,-1.9765,-1.9725,-1.9853,-1.9813,-1.9823,-1.984,-1.9853,-1.9863,-1.9859,-1.9687,0,0,0,0,0,-1.9459,-1.9505,-1.953,-1.9599,-1.9615,-1.9627,-1.9654,-1.9652,-1.9683,-1.9696,-1.9716,-1.9748,-1.9794,-1.9824,-1.9867,-1.9953,-1.9961,-1.9991,-2.0002,-2.001,-2.0019,-2.0066,-2.008,-1.9929,-1.9928,-1.9928,0,0,-1.9497,-1.952,-1.955,-1.9608,-1.9631,-1.968,-1.9638,-1.9691,-1.9728,-1.9704,-1.9773,-1.9789,-1.9824,-1.9903,-1.9939,-1.9919,-2.0062,-2.0018,-2.0025,-2.0029,-2.0074,-2.0089,-2.0101,-1.9933,-1.9932,-1.9931,0,0,-1.9593,-1.9614,-1.9674,-1.9698,-1.9733,-1.9741,-1.9755,-1.9787,-1.9796,-1.9865,-1.9849,-1.9892,-1.997,-1.9996,-2.002,-2.0124,-2.011,-2.0138,-2.0192,-2.0238,-2.025,-2.026,-2.0299,-2.0312,-2.0147,-2.0147,-2.0147,0,-1.9636,-1.9709,-1.9706,-1.9761,-1.9787,-1.9767,-1.9829,-1.9852,-1.99,-1.9919,-1.9895,-1.9994,-2.0016,-2.0101,-2.0126,-2.0146,-2.0163,-2.0135,-2.0248,-2.0259,-2.0269,-2.0305,-2.0319,-2.015,-2.015,-2.0149,-2.0149,0,-1.9761,-1.9811,-1.9855,-1.9902,-1.9933,-1.999,-1.9997,-2.0029,-2.0024,-2.0034,-2.0104,-2.013,-2.0179,-2.0198,-2.0194,-2.0283,-2.027,-2.0247,-2.0207,-2.0286,-2.0321,-2.0335,-2.0155,-2.0153,-2.0152,-2.0152,0,0,-1.9886,-1.9929,-1.9946,-1.9967,-2.0004,-2.0043,-2.0099,-2.0146,-2.0173,-2.0207,-2.0255,-2.0321,-2.0301,-2.0327,-2.0326,-2.0366,-2.0448,-2.0339,-2.0339,-2.0359,-2.0548,-2.0566,-2.0583,-2.0438,-2.044,-2.0443,-2.0546,0,-1.9985,-2.0084,-2.0083,-2.0175,-2.0222,-2.0203,-2.0252,-2.028,-2.0291,-2.0333,-2.0344,-2.0392,-2.036,-2.0376,-2.0415,-2.043,-2.0486,-2.0422,-2.0484,-2.0486,-2.0478,-2.06,-2.062,-2.0716,-2.0559,-2.0561,-2.0563,0,-2.0114,-2.0151,-2.0248,-2.0278,-2.0297,-2.0342,-2.0385,-2.0424,-2.0456,-2.0461,-2.049,-2.0482,-2.054,-2.0496,-2.0576,-2.0533,-2.0558,-2.0569,-2.0572,-2.058,-2.0531,-2.0613,-2.0746,-2.0762,-2.0584,-2.0582,-2.0581,0,-2.0198,-2.0271,-2.0339,-2.0357,-2.0393,-2.0425,-2.0442,-2.0471,-2.0499,-2.0536,-2.0554,-2.0598,-2.0622,-2.0656,-2.066,-2.0628,-2.0742,-2.0698,-2.0748,-2.0749,-2.0775,-2.0774,-2.0917,-2.0788,-2.0788,-2.0788,-2.0787,0,-2.031,-2.037,-2.0377,-2.0418,-2.0485,-2.0483,-2.055,-2.0564,-2.0589,-2.0634,-2.0619,-2.0661,-2.0663,-2.0706,-2.071,-2.0776,-2.0787,-2.0793,-2.0794,-2.0796,-2.0795,-2.0814,-2.0808,-2.0791,-2.0791,-2.079,-2.0789,0,-2.0415,-2.0422,-2.0494,-2.0522,-2.053,-2.0579,-2.0603,-2.0643,-2.0651,-2.0708,-2.0721,-2.0734,-2.0784,-2.0791,-2.085,-2.0852,-2.0933,-2.0925,-2.0922,-2.0922,-2.0972,-2.0968,-2.1134,-2.1156,-2.1011,-2.1013,-2.1014,0,-2.0487,-2.0533,-2.0565,-2.0594,-2.0612,-2.0658,-2.0686,-2.0686,-2.0716,-2.0755,-2.0791,-2.0839,-2.0878,-2.0959,-2.0974,-2.1019,-2.1014,-2.1068,-2.102,-2.1021,-2.1016,-2.1014,-2.1019,-2.1078,-2.108,-2.1081,-2.1082,0,-2.0615,-2.0615,-2.0657,-2.0699,-2.0733,-2.0767,-2.0798,-2.0822,-2.0826,-2.0861,-2.0911,-2.0941,-2.1001,-2.1049,-2.1093,-2.1111,-2.1098,-2.1097,-2.1111,-2.1115,-2.1112,-2.1115,-2.0949,-2.1094,-2.1093,-2.1092,-2.1091,-2.1091,-2.0707,-2.0747,-2.0776,-2.0822,-2.0845,-2.0875,-2.0914,-2.0927,-2.0969,-2.1017,-2.1014,-2.107,-2.11,-2.1158,-2.1178,-2.1222,-2.1205,-2.1225,-2.1231,-2.1236,-2.1242,-2.1103,-2.123,-2.123,-2.123,-2.1229,-2.1229,0,-2.0835,-2.0852,-2.0895,-2.0939,-2.0976,-2.0958,-2.0992,-2.1024,-2.1074,-2.1102,-2.1141,-2.1199,-2.1246,-2.1264,-2.131,-2.1342,-2.1337,-2.1354,-2.1353,-2.1357,-2.1255,-2.1238,-2.1357,-2.1357,-2.1357,-2.1357,-2.1357,-2.1357,-2.0906,-2.0973,-2.0977,-2.1056,-2.1072,-2.1127,-2.1148,-2.1175,-2.1198,-2.1264,-2.1302,-2.1314,-2.1339,-2.1386,-2.1428,-2.1432,-2.1451,-2.1471,-2.1473,-2.1377,-2.1364,-2.1352,-2.1337,-2.1474,-2.1475,-2.1572,-2.1573,-2.1573]},{"header":{"parameterUnit":"m.s-1","parameterCategory":1,"la1":30.2991,"la2":30.254,"lo1":-89.0895,"lo2":-89.0444,"dy":0.0017,"dx":0.0017,"nx":28,"ny":28,"refTime":"2025-01-12T03:00:00:Z","depth":0,"parameterNumber":3,"parameterNumberName":"V-component_of_WINDS"},"data":[0,0,0,0,0,0,0,0,0,0,0,0,0,0,0,0,0,0,0,0,0,0,0,0,0,0,0,0,0,0,0,0,0,0,0,0,0,0,0,0,0,0,0,0,0,0,0,0,0,0,0,0,0,0,0,0,0,0,-7.6393,-7.6393,0,-7.6429,-7.6429,-7.6429,-7.6315,-7.6311,-7.6308,-7.6305,-7.6337,-7.6341,-7.6345,0,0,0,0,0,0,0,0,0,0,0,0,0,-7.622,-7.6223,-7.6393,-7.6393,-7.6394,-7.6429,-7.6429,-7.643,-7.6316,-7.6311,-7.6307,-7.6303,-7.6336,-7.634,-7.6345,0,0,0,0,0,0,0,0,0,0,0,0,0,-7.6279,-7.6225,-7.6392,-7.6341,-7.6337,-7.6429,-7.6429,-7.643,-7.6316,-7.6311,-7.6306,-7.6301,-7.6334,-7.634,-7.6346,-7.6488,0,0,-7.6365,-7.6367,0,0,0,0,0,0,0,0,-7.6276,-7.6286,-7.6348,-7.6345,-7.634,-7.6362,-7.638,-7.6449,-7.6318,-7.6324,-7.6305,-7.6299,-7.6349,-7.6354,-7.6372,-7.6489,-7.6491,-7.6365,-7.6369,-7.6372,-7.6373,0,0,0,0,0,0,0,-7.6272,-7.6283,-7.6407,-7.6349,-7.6344,-7.6314,-7.6317,-7.6392,-7.6365,-7.6323,-7.6315,-7.6321,-7.6346,-7.6366,-7.6372,-7.6491,-7.6365,-7.6371,-7.6374,-7.6377,-7.6727,-7.6732,0,0,0,0,0,0,-7.6275,-7.6281,-7.6405,-7.6408,-7.6295,-7.6322,-7.6325,-7.636,-7.6364,-7.636,-7.6325,-7.6315,-7.6358,-7.6365,-7.6372,-7.6539,-7.6372,-7.6377,-7.6381,-7.6721,-7.6728,-7.6734,0,0,0,0,0,0,-7.6272,-7.6288,-7.6404,-7.6342,-7.6355,-7.633,-7.6371,-7.6364,-7.6384,-7.6366,-7.636,-7.6351,-7.6354,-7.6364,-7.646,-7.6538,-7.638,-7.6386,-7.6715,-7.6723,-7.6731,-7.6873,0,0,0,0,0,0,-7.6268,-7.6287,-7.6342,-7.6344,-7.6358,-7.6493,-7.6376,-7.6368,-7.6395,-7.6383,-7.6389,-7.6385,-7.6351,-7.6452,-7.6466,-7.6544,-7.639,-7.6707,-7.6718,-7.6728,-7.6862,-7.6886,-7.6906,0,0,0,0,0,-7.6262,-7.6379,-7.6345,-7.6361,-7.6427,-7.6498,-7.6506,-7.6466,-7.6402,-7.6456,-7.6445,-7.6384,-7.6528,-7.6463,-7.6478,-7.6559,-7.6702,-7.6715,-7.6728,-7.6852,-7.6881,-7.6906,0,0,0,0,0,0,-7.6385,-7.6379,-7.6341,-7.6463,-7.6482,-7.6479,-7.6546,-7.6499,-7.6535,-7.6522,-7.6469,-7.6471,-7.6578,-7.6577,-7.6505,-7.6696,-7.6604,-7.662,-7.6693,-7.672,-7.6742,-7.674,-7.6395,0,0,0,0,0,-7.6426,-7.6487,-7.6477,-7.6586,-7.6598,-7.6571,-7.66,-7.6568,-7.6585,-7.6592,-7.6587,-7.6605,-7.6653,-7.6687,-7.6731,-7.6861,-7.686,-7.6924,-7.6946,-7.6965,-7.6979,-7.7049,-7.7077,-7.6776,-7.6776,-7.6775,0,0,-7.6512,-7.6516,-7.6557,-7.6611,-7.6622,-7.6684,-7.6578,-7.6648,-7.6693,-7.6602,-7.6694,-7.6691,-7.6707,-7.6821,-7.6871,-7.6824,-7.7063,-7.6981,-7.6996,-7.7,-7.7064,-7.7093,-7.7118,-7.6784,-7.6783,-7.6781,0,0,-7.6701,-7.6711,-7.6802,-7.6816,-7.6835,-7.6816,-7.6839,-7.6843,-7.6838,-7.693,-7.6863,-7.6915,-7.7,-7.7014,-7.7033,-7.7228,-7.7174,-7.7243,-7.736,-7.7428,-7.7452,-7.7472,-7.7542,-7.7568,-7.7258,-7.7258,-7.7259,0,-7.6805,-7.6898,-7.6855,-7.6931,-7.6956,-7.6878,-7.697,-7.6984,-7.7016,-7.7035,-7.6982,-7.7088,-7.7093,-7.721,-7.7258,-7.7275,-7.7298,-7.7242,-7.7452,-7.7472,-7.7491,-7.7557,-7.7584,-7.7267,-7.7266,-7.7265,-7.7264,0,-7.7025,-7.709,-7.7162,-7.7197,-7.723,-7.7313,-7.7282,-7.732,-7.7285,-7.7272,-7.7366,-7.7369,-7.7413,-7.7438,-7.7404,-7.755,-7.7521,-7.7461,-7.7367,-7.7529,-7.759,-7.7615,-7.7279,-7.7276,-7.7273,-7.7271,0,0,-7.7292,-7.7303,-7.733,-7.7346,-7.7361,-7.741,-7.7489,-7.7533,-7.7567,-7.7591,-7.7656,-7.773,-7.7676,-7.7697,-7.7663,-7.7723,-7.7878,-7.7656,-7.7655,-7.7697,-7.804,-7.8085,-7.8115,-7.7842,-7.7847,-7.7851,-7.8039,0,-7.7478,-7.7617,-7.7581,-7.7717,-7.7777,-7.7704,-7.7773,-7.7789,-7.7779,-7.7826,-7.7813,-7.7867,-7.7791,-7.7803,-7.7859,-7.7848,-7.7946,-7.7833,-7.7901,-7.7904,-7.79,-7.8147,-7.8195,-7.8372,-7.8062,-7.8066,-7.8069,0,-7.7714,-7.775,-7.7894,-7.79,-7.7924,-7.7987,-7.8025,-7.8071,-7.8088,-7.8076,-7.8101,-7.8055,-7.8132,-7.8038,-7.8142,-7.8067,-7.8092,-7.8091,-7.8096,-7.8101,-7.7997,-7.8159,-7.8428,-7.8455,-7.8106,-7.8103,-7.8101,0,-7.7895,-7.7979,-7.8076,-7.8091,-7.8101,-7.8147,-7.8153,-7.8164,-7.8193,-7.8226,-7.8244,-7.8285,-7.8307,-7.8339,-7.8305,-7.824,-7.8415,-7.8318,-7.8407,-7.8408,-7.8447,-7.8445,-7.8725,-7.8463,-7.8463,-7.8463,-7.8462,0,-7.8107,-7.8198,-7.8158,-7.8218,-7.8317,-7.8274,-7.8373,-7.837,-7.8381,-7.8438,-7.8376,-7.843,-7.8382,-7.8432,-7.8406,-7.8497,-7.8507,-7.8499,-7.8491,-7.8505,-7.8506,-7.8521,-7.8508,-7.847,-7.8468,-7.8467,-7.8465,0,-7.8327,-7.8303,-7.8405,-7.8406,-7.8408,-7.8482,-7.8482,-7.8536,-7.8522,-7.8594,-7.8609,-7.8585,-7.8641,-7.861,-7.8667,-7.8649,-7.8767,-7.8742,-7.8763,-7.8756,-7.8847,-7.8839,-7.9146,-7.9184,-7.8898,-7.8901,-7.8903,0,-7.8464,-7.8532,-7.8542,-7.8577,-7.8587,-7.8644,-7.8674,-7.8633,-7.8667,-7.8691,-7.8743,-7.8793,-7.8832,-7.8923,-7.891,-7.8953,-7.8929,-7.9033,-7.8934,-7.8947,-7.8931,-7.8927,-7.8934,-7.9053,-7.9056,-7.9059,-7.9061,0,-7.871,-7.8695,-7.8742,-7.8786,-7.8824,-7.8856,-7.8882,-7.8913,-7.8873,-7.8914,-7.8971,-7.9001,-7.9059,-7.911,-7.9147,-7.915,-7.91,-7.9093,-7.9115,-7.9131,-7.914,-7.9137,-7.8817,-7.9086,-7.9083,-7.9081,-7.908,-7.9079,-7.8893,-7.895,-7.8967,-7.9021,-7.9037,-7.9063,-7.9115,-7.9107,-7.9155,-7.9201,-7.9173,-7.924,-7.9254,-7.9299,-7.9309,-7.936,-7.9318,-7.9351,-7.936,-7.9369,-7.9381,-7.9132,-7.9366,-7.9366,-7.9365,-7.9364,-7.9364,0,-7.9136,-7.9143,-7.9194,-7.9234,-7.9276,-7.9226,-7.9252,-7.9291,-7.9351,-7.937,-7.9409,-7.9475,-7.9524,-7.9515,-7.9559,-7.9601,-7.9579,-7.9614,-7.9611,-7.9613,-7.9416,-7.9392,-7.9632,-7.9632,-7.9632,-7.9632,-7.9631,-7.9631,-7.9268,-7.9363,-7.9351,-7.9453,-7.9459,-7.9526,-7.9545,-7.9568,-7.9583,-7.966,-7.9701,-7.9695,-7.9703,-7.9747,-7.9789,-7.9785,-7.9805,-7.9849,-7.9836,-7.9653,-7.9626,-7.9601,-7.9579,-7.9853,-7.9854,-8.0029,-8.003,-8.0032]}]]